,,,PA_Meas_PMT16A,,PR_Meas_QMR101_102,,RH_Meas_QMH101,,SR_Meas_QMS101,,TA_Meas_QMH101,,GenWind,,GenWind,
date,time,status,PA,status,PR,status,RH,status,SR,status,TA,status,DirAvg,status,SpdAvg,
2012-02-11, 00:00:04,VALID,1003.7,VALID,0,VALID,85.2375,VALID,0,VALID,25.9427,VALID,342,VALID,0.433594,
2012-02-11, 00:01:04,VALID,1003.7,VALID,0,VALID,85.2375,VALID,0,VALID,25.9427,VALID,350,VALID,1.19727,
2012-02-11, 00:02:04,VALID,1003.69,VALID,0,VALID,85.1765,VALID,0,VALID,25.9622,VALID,346,VALID,0.828125,
2012-02-11, 00:03:04,VALID,1003.66,VALID,0,VALID,85.1688,VALID,0,VALID,25.9408,VALID,355,VALID,1.06641,
2012-02-11, 00:04:04,VALID,1003.69,VALID,0,VALID,85.268,VALID,0,VALID,25.9427,VALID,357,VALID,0.297656,
2012-02-11, 00:05:04,VALID,1003.65,VALID,0,VALID,85.3214,VALID,0,VALID,25.9213,VALID,357,VALID,0.897266,
2012-02-11, 00:06:04,VALID,1003.66,VALID,0,VALID,85.3672,VALID,0,VALID,25.9018,VALID,339,VALID,1.03281,
2012-02-11, 00:07:04,VALID,1003.62,VALID,0,VALID,85.535,VALID,0,VALID,25.9038,VALID,292,VALID,0.485547,
2012-02-11, 00:08:04,VALID,1003.6,VALID,0,VALID,85.4206,VALID,0,VALID,25.9038,VALID,328,VALID,1.10078,
2012-02-11, 00:09:04,VALID,1003.63,VALID,0,VALID,85.4587,VALID,0,VALID,25.9252,VALID,344,VALID,0.809766,
2012-02-11, 00:10:04,VALID,1003.59,VALID,0,VALID,85.4587,VALID,0,VALID,25.9038,VALID,334,VALID,0.715625,
2012-02-11, 00:11:04,VALID,1003.57,VALID,0,VALID,85.4358,VALID,0,VALID,25.8843,VALID,346,VALID,1.29727,
2012-02-11, 00:12:04,VALID,1003.55,VALID,0,VALID,85.6418,VALID,0,VALID,25.8843,VALID,342,VALID,0.437891,
2012-02-11, 00:13:04,VALID,1003.54,VALID,0,VALID,85.6037,VALID,0,VALID,25.8219,VALID,338,VALID,0.791406,
2012-02-11, 00:14:04,VALID,1003.51,VALID,0,VALID,85.5503,VALID,0,VALID,25.8648,VALID,341,VALID,0.728906,
2012-02-11, 00:15:04,VALID,1003.51,VALID,0,VALID,85.5884,VALID,0,VALID,25.8648,VALID,341,VALID,0.869141,
2012-02-11, 00:16:04,VALID,1003.48,VALID,0,VALID,85.4663,VALID,0,VALID,25.8648,VALID,343,VALID,1.1957,
2012-02-11, 00:17:04,VALID,1003.47,VALID,0,VALID,85.5884,VALID,0,VALID,25.8453,VALID,338,VALID,0.948047,
2012-02-11, 00:18:04,VALID,1003.44,VALID,0,VALID,85.6189,VALID,0,VALID,25.8239,VALID,351,VALID,0.7875,
2012-02-11, 00:19:04,VALID,1003.4,VALID,0,VALID,85.5808,VALID,0,VALID,25.8259,VALID,339,VALID,0.808203,
2012-02-11, 00:20:04,VALID,1003.37,VALID,0,VALID,85.4435,VALID,0,VALID,25.8453,VALID,341,VALID,1.15352,
2012-02-11, 00:21:04,VALID,1003.35,VALID,0,VALID,85.4435,VALID,0,VALID,25.8239,VALID,335,VALID,0.782031,
2012-02-11, 00:22:04,VALID,1003.3,VALID,0,VALID,85.1154,VALID,0,VALID,25.8434,VALID,343,VALID,1.78867,
2012-02-11, 00:23:04,VALID,1003.28,VALID,0,VALID,85.0239,VALID,0.0815089,VALID,25.8823,VALID,344,VALID,1.27773,
2012-02-11, 00:24:04,VALID,1003.29,VALID,0,VALID,84.9094,VALID,0,VALID,25.9038,VALID,360,VALID,1.26172,
2012-02-11, 00:25:04,VALID,1003.25,VALID,0,VALID,84.9323,VALID,0,VALID,25.9018,VALID,342,VALID,1.04766,
2012-02-11, 00:26:04,VALID,1003.21,VALID,0,VALID,85.062,VALID,0,VALID,25.9018,VALID,349,VALID,0.803516,
2012-02-11, 00:27:04,VALID,1003.18,VALID,0,VALID,84.9705,VALID,0,VALID,25.9038,VALID,327,VALID,0.5625,
2012-02-11, 00:28:04,VALID,1003.15,VALID,0,VALID,84.7721,VALID,0,VALID,25.9232,VALID,346,VALID,1.82422,
2012-02-11, 00:29:04,VALID,1003.12,VALID,0,VALID,84.6501,VALID,0,VALID,25.9213,VALID,348,VALID,1.49023,
2012-02-11, 00:30:04,VALID,1003.11,VALID,0,VALID,84.5814,VALID,0,VALID,25.9622,VALID,358,VALID,0.823047,
2012-02-11, 00:31:04,VALID,1003.09,VALID,0,VALID,84.4364,VALID,0,VALID,25.9622,VALID,352,VALID,0.794922,
2012-02-11, 00:32:04,VALID,1003.07,VALID,0,VALID,84.2839,VALID,0,VALID,25.9602,VALID,313,VALID,0.722266,
2012-02-11, 00:33:04,VALID,1003.06,VALID,0,VALID,83.9101,VALID,0,VALID,26.0187,VALID,347,VALID,1.49922,
2012-02-11, 00:34:04,VALID,1003.06,VALID,0,VALID,83.6888,VALID,0,VALID,26.0381,VALID,352,VALID,0.964453,
2012-02-11, 00:35:04,VALID,1003.06,VALID,0,VALID,83.5286,VALID,0,VALID,26.0771,VALID,338,VALID,1.12812,
2012-02-11, 00:36:04,VALID,1003.01,VALID,0,VALID,83.4981,VALID,0,VALID,26.0771,VALID,350,VALID,1.0043,
2012-02-11, 00:37:04,VALID,1003.02,VALID,0,VALID,83.5591,VALID,0,VALID,26.0771,VALID,322,VALID,0.498828,
2012-02-11, 00:38:04,VALID,1003.02,VALID,0,VALID,83.5439,VALID,0,VALID,26.0771,VALID,351,VALID,0.866797,
2012-02-11, 00:39:04,VALID,1003.01,VALID,0,VALID,83.7041,VALID,0,VALID,26.0791,VALID,345,VALID,0.459375,
2012-02-11, 00:40:04,VALID,1003.01,VALID,0,VALID,83.6964,VALID,0,VALID,26.0596,VALID,349,VALID,1.28437,
2012-02-11, 00:41:04,VALID,1002.97,VALID,0,VALID,83.8948,VALID,0,VALID,26.0401,VALID,262,VALID,0.469922,
2012-02-11, 00:42:04,VALID,1002.97,VALID,0,VALID,83.9787,VALID,0,VALID,26.0206,VALID,345,VALID,1.22695,
2012-02-11, 00:43:04,VALID,1003.04,VALID,0,VALID,83.9635,VALID,0,VALID,26.0401,VALID,345,VALID,0.945703,
2012-02-11, 00:44:04,VALID,1003.04,VALID,0,VALID,84.0931,VALID,0,VALID,26.0401,VALID,354,VALID,0.744531,
2012-02-11, 00:45:04,VALID,1003.07,VALID,0,VALID,84.1084,VALID,0.0815089,VALID,26.0206,VALID,347,VALID,0.785937,
2012-02-11, 00:46:04,VALID,1003.06,VALID,0,VALID,84.2686,VALID,0,VALID,26.0187,VALID,350,VALID,0.234375,
2012-02-11, 00:47:04,VALID,1003.11,VALID,0,VALID,84.4212,VALID,0,VALID,26.0206,VALID,350,VALID,0.250391,
2012-02-11, 00:48:04,VALID,1003.12,VALID,0,VALID,84.3754,VALID,0,VALID,26.0012,VALID,340,VALID,0.741797,
2012-02-11, 00:49:04,VALID,1003.12,VALID,0,VALID,84.4364,VALID,0,VALID,26.0012,VALID,307,VALID,0.635547,
2012-02-11, 00:50:04,VALID,1003.16,VALID,0,VALID,84.4212,VALID,0,VALID,25.9992,VALID,303,VALID,0.466797,
2012-02-11, 00:51:04,VALID,1003.14,VALID,0,VALID,84.4212,VALID,0,VALID,25.9992,VALID,302,VALID,0.446875,
2012-02-11, 00:52:04,VALID,1003.14,VALID,0,VALID,84.6043,VALID,0.0815089,VALID,25.9992,VALID,302,VALID,0.298047,
2012-02-11, 00:53:04,VALID,1003.15,VALID,0,VALID,84.795,VALID,0,VALID,25.9992,VALID,299,VALID,0.0742188,
2012-02-11, 00:54:04,VALID,1003.15,VALID,0,VALID,84.6348,VALID,0,VALID,26.0012,VALID,285,VALID,0.545703,
2012-02-11, 00:55:04,VALID,1003.15,VALID,0,VALID,84.94,VALID,0.0815089,VALID,25.9797,VALID,239,VALID,0.347656,
2012-02-11, 00:56:04,VALID,1003.2,VALID,0,VALID,85.0925,VALID,0,VALID,25.9622,VALID,238,VALID,0.448438,
2012-02-11, 00:57:04,VALID,1003.21,VALID,0,VALID,85.3367,VALID,0.0815089,VALID,25.9408,VALID,234,VALID,0.245312,
2012-02-11, 00:58:04,VALID,1003.21,VALID,0,VALID,85.3061,VALID,0,VALID,25.9232,VALID,234,VALID,0.361328,
2012-02-11, 00:59:04,VALID,1003.2,VALID,0,VALID,85.4816,VALID,0,VALID,25.9038,VALID,234,VALID,0.127734,
2012-02-11, 01:00:04,VALID,1003.19,VALID,0,VALID,85.3595,VALID,0,VALID,25.8843,VALID,289,VALID,0.635547,
2012-02-11, 01:01:04,VALID,1003.16,VALID,0,VALID,85.2222,VALID,0,VALID,25.8843,VALID,286,VALID,0.468359,
2012-02-11, 01:02:04,VALID,1003.15,VALID,0,VALID,85.2756,VALID,0,VALID,25.9038,VALID,294,VALID,0.494531,
2012-02-11, 01:03:04,VALID,1003.16,VALID,0,VALID,85.3672,VALID,0,VALID,25.8823,VALID,348,VALID,0.828125,
2012-02-11, 01:04:04,VALID,1003.12,VALID,0,VALID,85.3214,VALID,0,VALID,25.9018,VALID,348,VALID,0.683203,
2012-02-11, 01:05:04,VALID,1003.09,VALID,0,VALID,85.474,VALID,0,VALID,25.9232,VALID,345,VALID,0.813281,
2012-02-11, 01:06:04,VALID,1003.05,VALID,0,VALID,85.802,VALID,0,VALID,25.9232,VALID,22,VALID,0.898047,
2012-02-11, 01:07:04,VALID,1003.01,VALID,0,VALID,86.0919,VALID,0,VALID,25.8843,VALID,18,VALID,0.852344,
2012-02-11, 01:08:04,VALID,1002.96,VALID,0,VALID,86.5344,VALID,0,VALID,25.8259,VALID,27,VALID,0.734766,
2012-02-11, 01:09:04,VALID,1002.94,VALID,0,VALID,86.6641,VALID,0,VALID,25.7869,VALID,27,VALID,0.630469,
2012-02-11, 01:10:04,VALID,1002.89,VALID,0,VALID,87.015,VALID,0,VALID,25.7285,VALID,27,VALID,0.572266,
2012-02-11, 01:11:04,VALID,1002.83,VALID,0,VALID,87.2591,VALID,0,VALID,25.67,VALID,27,VALID,0.638672,
2012-02-11, 01:12:04,VALID,1002.8,VALID,0,VALID,87.6101,VALID,0,VALID,25.6311,VALID,27,VALID,0.449609,
2012-02-11, 01:13:04,VALID,1002.75,VALID,0,VALID,87.7779,VALID,0,VALID,25.5727,VALID,27,VALID,0.657812,
2012-02-11, 01:14:04,VALID,1002.69,VALID,0,VALID,88.0602,VALID,0,VALID,25.5551,VALID,27,VALID,0.182422,
2012-02-11, 01:15:04,VALID,1002.66,VALID,0,VALID,88.1365,VALID,0,VALID,25.4928,VALID,26,VALID,0.439844,
2012-02-11, 01:16:04,VALID,1002.6,VALID,0,VALID,88.1365,VALID,0,VALID,25.4948,VALID,26,VALID,0.631641,
2012-02-11, 01:17:04,VALID,1002.59,VALID,0,VALID,87.8923,VALID,0.0815089,VALID,25.5142,VALID,19,VALID,0.802344,
2012-02-11, 01:18:04,VALID,1002.63,VALID,0,VALID,87.8847,VALID,0,VALID,25.5337,VALID,18,VALID,0.491406,
2012-02-11, 01:19:04,VALID,1002.62,VALID,0,VALID,87.7932,VALID,0,VALID,25.5337,VALID,18,VALID,0.435156,
2012-02-11, 01:20:04,VALID,1002.62,VALID,0,VALID,87.7169,VALID,0,VALID,25.5337,VALID,17,VALID,1.1457,
2012-02-11, 01:21:04,VALID,1002.68,VALID,0,VALID,87.6177,VALID,0,VALID,25.5921,VALID,33,VALID,0.384375,
2012-02-11, 01:22:04,VALID,1002.69,VALID,0,VALID,87.3125,VALID,0,VALID,25.6506,VALID,12,VALID,0.519531,
2012-02-11, 01:23:04,VALID,1002.72,VALID,0,VALID,87.1066,VALID,0,VALID,25.709,VALID,12,VALID,0.270312,
2012-02-11, 01:24:04,VALID,1002.73,VALID,0,VALID,86.8395,VALID,0.0815089,VALID,25.7674,VALID,12,VALID,0.270703,
2012-02-11, 01:25:04,VALID,1002.77,VALID,0,VALID,86.809,VALID,0,VALID,25.785,VALID,12,VALID,0.239063,
2012-02-11, 01:26:04,VALID,1002.77,VALID,0,VALID,86.8548,VALID,0,VALID,25.8239,VALID,12,VALID,0.253125,
2012-02-11, 01:27:04,VALID,1002.8,VALID,0,VALID,86.6183,VALID,0,VALID,25.8239,VALID,12,VALID,0,
2012-02-11, 01:28:04,VALID,1002.8,VALID,0,VALID,86.5344,VALID,0,VALID,25.8259,VALID,12,VALID,0,
2012-02-11, 01:29:04,VALID,1002.8,VALID,0,VALID,86.3894,VALID,0,VALID,25.8259,VALID,12,VALID,0.311328,
2012-02-11, 01:30:04,VALID,1002.8,VALID,0,VALID,86.4886,VALID,0,VALID,25.8453,VALID,12,VALID,0,
2012-02-11, 01:31:04,VALID,1002.81,VALID,0,VALID,86.6488,VALID,0,VALID,25.8434,VALID,12,VALID,0.0558594,
2012-02-11, 01:32:05,VALID,1002.78,VALID,0,VALID,86.4123,VALID,0,VALID,25.8629,VALID,354,VALID,0.376172,
2012-02-11, 01:33:05,VALID,1002.76,VALID,0,VALID,86.2598,VALID,0,VALID,25.9038,VALID,283,VALID,0.441797,
2012-02-11, 01:34:05,VALID,1002.72,VALID,0,VALID,86.1148,VALID,0,VALID,25.9232,VALID,283,VALID,0.271875,
2012-02-11, 01:35:04,VALID,1002.68,VALID,0,VALID,86.214,VALID,0,VALID,25.9427,VALID,283,VALID,0,
2012-02-11, 01:36:05,VALID,1002.63,VALID,0,VALID,86.2369,VALID,0,VALID,25.9427,VALID,283,VALID,0.0566406,
2012-02-11, 01:37:05,VALID,1002.55,VALID,0,VALID,86.2826,VALID,0,VALID,25.9622,VALID,283,VALID,0.389844,
2012-02-11, 01:38:05,VALID,1002.53,VALID,0,VALID,86.4352,VALID,0,VALID,25.9622,VALID,283,VALID,0.351953,
2012-02-11, 01:39:05,VALID,1002.46,VALID,0,VALID,86.5725,VALID,0,VALID,25.9427,VALID,326,VALID,0.274609,
2012-02-11, 01:40:05,VALID,1002.41,VALID,0,VALID,86.9464,VALID,0,VALID,25.8843,VALID,345,VALID,0.356641,
2012-02-11, 01:41:05,VALID,1002.39,VALID,0,VALID,87.1447,VALID,0,VALID,25.8259,VALID,345,VALID,0.223828,
2012-02-11, 01:42:05,VALID,1002.35,VALID,0,VALID,87.3812,VALID,0,VALID,25.7674,VALID,345,VALID,0.0957031,
2012-02-11, 01:43:05,VALID,1002.32,VALID,0,VALID,87.5414,VALID,0,VALID,25.6876,VALID,345,VALID,0.0957031,
2012-02-11, 01:44:05,VALID,1002.36,VALID,0,VALID,87.816,VALID,0,VALID,25.6486,VALID,345,VALID,0,
2012-02-11, 01:45:05,VALID,1002.35,VALID,0,VALID,87.9381,VALID,0,VALID,25.6486,VALID,345,VALID,0.107813,
2012-02-11, 01:46:05,VALID,1002.37,VALID,0,VALID,88.1746,VALID,0,VALID,25.5902,VALID,345,VALID,0,
2012-02-11, 01:47:05,VALID,1002.37,VALID,0,VALID,88.3501,VALID,0,VALID,25.5707,VALID,345,VALID,0,
2012-02-11, 01:48:05,VALID,1002.4,VALID,0,VALID,88.4569,VALID,0,VALID,25.5513,VALID,345,VALID,0,
2012-02-11, 01:49:05,VALID,1002.43,VALID,0,VALID,88.5026,VALID,0,VALID,25.5532,VALID,345,VALID,0,
2012-02-11, 01:50:05,VALID,1002.44,VALID,0,VALID,89.0748,VALID,0.0815089,VALID,25.5318,VALID,345,VALID,0,
2012-02-11, 01:51:05,VALID,1002.45,VALID,0,VALID,88.9375,VALID,0,VALID,25.5532,VALID,345,VALID,0.0871094,
2012-02-11, 01:52:05,VALID,1002.46,VALID,0,VALID,89.0824,VALID,0,VALID,25.5318,VALID,345,VALID,0,
2012-02-11, 01:53:05,VALID,1002.46,VALID,0,VALID,89.3342,VALID,0,VALID,25.5513,VALID,345,VALID,0,
2012-02-11, 01:54:05,VALID,1002.43,VALID,0,VALID,89.3494,VALID,0,VALID,25.5532,VALID,345,VALID,0.445313,
2012-02-11, 01:55:05,VALID,1002.43,VALID,0,VALID,89.4334,VALID,0,VALID,25.5142,VALID,345,VALID,0.507031,
2012-02-11, 01:56:05,VALID,1002.4,VALID,0,VALID,89.5173,VALID,0,VALID,25.4539,VALID,358,VALID,0.741016,
2012-02-11, 01:57:05,VALID,1002.36,VALID,0,VALID,89.7843,VALID,0,VALID,25.4363,VALID,358,VALID,0.479688,
2012-02-11, 01:58:05,VALID,1002.33,VALID,0,VALID,89.9903,VALID,0,VALID,25.3955,VALID,3,VALID,0.644922,
2012-02-11, 01:59:05,VALID,1002.33,VALID,0,VALID,90.036,VALID,0,VALID,25.3779,VALID,6,VALID,0.628906,
2012-02-11, 02:00:05,VALID,1002.35,VALID,0,VALID,90.3107,VALID,0,VALID,25.3584,VALID,6,VALID,0.405859,
2012-02-11, 02:01:05,VALID,1002.33,VALID,0,VALID,90.3336,VALID,0,VALID,25.3,VALID,6,VALID,0.353516,
2012-02-11, 02:02:05,VALID,1002.35,VALID,0,VALID,90.4099,VALID,0,VALID,25.2806,VALID,6,VALID,0.208984,
2012-02-11, 02:03:05,VALID,1002.32,VALID,0,VALID,90.4556,VALID,0,VALID,25.2416,VALID,6,VALID,0,
2012-02-11, 02:04:05,VALID,1002.31,VALID,0,VALID,90.5472,VALID,0,VALID,25.2007,VALID,6,VALID,0.0839844,
2012-02-11, 02:05:05,VALID,1002.3,VALID,0,VALID,90.5319,VALID,0,VALID,25.2007,VALID,6,VALID,0.09375,
2012-02-11, 02:06:05,VALID,1002.28,VALID,0,VALID,90.5472,VALID,0,VALID,25.2027,VALID,6,VALID,0.0140625,
2012-02-11, 02:07:05,VALID,1002.25,VALID,0,VALID,90.6006,VALID,0,VALID,25.1813,VALID,6,VALID,0.109375,
2012-02-11, 02:08:05,VALID,1002.22,VALID,0,VALID,90.5777,VALID,0,VALID,25.1832,VALID,6,VALID,0.172656,
2012-02-11, 02:09:05,VALID,1002.19,VALID,0,VALID,90.4022,VALID,0,VALID,25.1832,VALID,356,VALID,0.118359,
2012-02-11, 02:10:05,VALID,1002.18,VALID,0,VALID,90.3031,VALID,0,VALID,25.1813,VALID,356,VALID,0.310156,
2012-02-11, 02:11:05,VALID,1002.2,VALID,0,VALID,90.2268,VALID,0.0815089,VALID,25.2027,VALID,356,VALID,0,
2012-02-11, 02:12:05,VALID,1002.2,VALID,0,VALID,90.2344,VALID,0,VALID,25.2027,VALID,356,VALID,0,
2012-02-11, 02:13:05,VALID,1002.2,VALID,0,VALID,90.2497,VALID,0,VALID,25.2027,VALID,356,VALID,0,
2012-02-11, 02:14:05,VALID,1002.22,VALID,0,VALID,90.1886,VALID,0,VALID,25.1637,VALID,356,VALID,0,
2012-02-11, 02:15:05,VALID,1002.25,VALID,0,VALID,90.2268,VALID,0,VALID,25.1229,VALID,356,VALID,0,
2012-02-11, 02:16:05,VALID,1002.27,VALID,0,VALID,90.2573,VALID,0,VALID,25.1248,VALID,356,VALID,0,
2012-02-11, 02:17:05,VALID,1002.31,VALID,0,VALID,90.2649,VALID,0.0815089,VALID,25.0839,VALID,356,VALID,0,
2012-02-11, 02:18:05,VALID,1002.36,VALID,0,VALID,90.2725,VALID,0,VALID,25.0663,VALID,356,VALID,0,
2012-02-11, 02:19:05,VALID,1002.37,VALID,0,VALID,90.3641,VALID,0,VALID,25.045,VALID,356,VALID,0,
2012-02-11, 02:20:05,VALID,1002.44,VALID,0,VALID,90.5777,VALID,0,VALID,25.0255,VALID,356,VALID,0,
2012-02-11, 02:21:05,VALID,1002.44,VALID,0,VALID,90.6921,VALID,0,VALID,25.0255,VALID,356,VALID,0,
2012-02-11, 02:22:05,VALID,1002.47,VALID,0,VALID,90.8066,VALID,0,VALID,25.0079,VALID,356,VALID,0,
2012-02-11, 02:23:05,VALID,1002.48,VALID,0,VALID,90.9286,VALID,0,VALID,24.9866,VALID,356,VALID,0,
2012-02-11, 02:24:05,VALID,1002.51,VALID,0,VALID,91.0431,VALID,0.0815089,VALID,24.9457,VALID,356,VALID,0,
2012-02-11, 02:25:05,VALID,1002.53,VALID,0,VALID,91.1346,VALID,0,VALID,24.9476,VALID,356,VALID,0,
2012-02-11, 02:26:05,VALID,1002.54,VALID,0,VALID,91.1956,VALID,0.0815089,VALID,24.9282,VALID,356,VALID,0,
2012-02-11, 02:27:05,VALID,1002.56,VALID,0,VALID,91.2948,VALID,0,VALID,24.8873,VALID,356,VALID,0,
2012-02-11, 02:28:05,VALID,1002.59,VALID,0,VALID,91.3864,VALID,0,VALID,24.9087,VALID,356,VALID,0,
2012-02-11, 02:29:05,VALID,1002.58,VALID,0,VALID,91.5389,VALID,0.0815089,VALID,24.9087,VALID,356,VALID,0,
2012-02-11, 02:30:05,VALID,1002.58,VALID,0,VALID,91.7449,VALID,0,VALID,24.93,VALID,356,VALID,0,
2012-02-11, 02:31:05,VALID,1002.6,VALID,0,VALID,91.7831,VALID,0.0815089,VALID,24.9087,VALID,356,VALID,0,
2012-02-11, 02:32:05,VALID,1002.56,VALID,0,VALID,91.8746,VALID,0.0815089,VALID,24.9087,VALID,356,VALID,0,
2012-02-11, 02:33:05,VALID,1002.53,VALID,0,VALID,91.8517,VALID,0.0815089,VALID,24.8892,VALID,356,VALID,0,
2012-02-11, 02:34:05,VALID,1002.5,VALID,0,VALID,91.8899,VALID,0,VALID,24.8892,VALID,356,VALID,0,
2012-02-11, 02:35:05,VALID,1002.5,VALID,0,VALID,91.928,VALID,0,VALID,24.8697,VALID,356,VALID,0,
2012-02-11, 02:36:05,VALID,1002.54,VALID,0,VALID,91.9585,VALID,0,VALID,24.9106,VALID,356,VALID,0,
2012-02-11, 02:37:05,VALID,1002.51,VALID,0,VALID,91.9662,VALID,0.0815089,VALID,24.8892,VALID,356,VALID,0,
2012-02-11, 02:38:05,VALID,1002.53,VALID,0,VALID,92.1035,VALID,0,VALID,24.8892,VALID,356,VALID,0,
2012-02-11, 02:39:05,VALID,1002.55,VALID,0,VALID,92.1492,VALID,0.0815089,VALID,24.8892,VALID,356,VALID,0.429688,
2012-02-11, 02:40:05,VALID,1002.6,VALID,0,VALID,92.3629,VALID,0,VALID,24.9087,VALID,298,VALID,0.0398437,
2012-02-11, 02:41:05,VALID,1002.59,VALID,0,VALID,92.5383,VALID,0,VALID,24.9866,VALID,251,VALID,0.351172,
2012-02-11, 02:42:05,VALID,1002.64,VALID,0,VALID,92.3629,VALID,0,VALID,25.0274,VALID,243,VALID,0.503516,
2012-02-11, 02:43:05,VALID,1002.66,VALID,0,VALID,92.1645,VALID,0,VALID,25.0663,VALID,74,VALID,0.323828,
2012-02-11, 02:44:05,VALID,1002.59,VALID,0,VALID,91.8517,VALID,0.0815089,VALID,25.1034,VALID,68,VALID,0.0832031,
2012-02-11, 02:45:05,VALID,1002.64,VALID,0,VALID,91.6229,VALID,0,VALID,25.1423,VALID,68,VALID,0.199609,
2012-02-11, 02:46:05,VALID,1002.65,VALID,0,VALID,91.1117,VALID,0,VALID,25.1813,VALID,302,VALID,0.778906,
2012-02-11, 02:47:05,VALID,1002.73,VALID,0,VALID,91.6,VALID,0.0815089,VALID,25.2592,VALID,261,VALID,1.0207,
2012-02-11, 02:48:05,VALID,1002.79,VALID,1,VALID,91.989,VALID,0.0815089,VALID,25.337,VALID,283,VALID,1.33281,
2012-02-11, 02:49:05,VALID,1002.73,VALID,1.5,VALID,92.0882,VALID,0.0815089,VALID,25.2786,VALID,270,VALID,0.8,
2012-02-11, 02:50:05,VALID,1002.66,VALID,1,VALID,91.867,VALID,0,VALID,25.1404,VALID,360,VALID,1.79258,
2012-02-11, 02:51:05,VALID,1002.66,VALID,0.5,VALID,91.6686,VALID,0.0815089,VALID,24.969,VALID,352,VALID,1.16523,
2012-02-11, 02:52:05,VALID,1002.64,VALID,1,VALID,92.0882,VALID,0,VALID,24.7529,VALID,349,VALID,1.55664,
2012-02-11, 02:53:05,VALID,1002.65,VALID,1,VALID,92.2942,VALID,0.0815089,VALID,24.5972,VALID,352,VALID,2.14414,
2012-02-11, 02:54:05,VALID,1002.61,VALID,1,VALID,93.3088,VALID,0,VALID,24.5017,VALID,355,VALID,1.07109,
2012-02-11, 02:55:05,VALID,1002.58,VALID,0,VALID,94.0336,VALID,0,VALID,24.5017,VALID,344,VALID,1.0043,
2012-02-11, 02:56:05,VALID,1002.64,VALID,0.5,VALID,94.3235,VALID,0,VALID,24.5212,VALID,341,VALID,1.22187,
2012-02-11, 02:57:05,VALID,1002.7,VALID,0,VALID,94.4761,VALID,0,VALID,24.5601,VALID,335,VALID,0.398438,
2012-02-11, 02:58:05,VALID,1002.69,VALID,0,VALID,94.5752,VALID,0,VALID,24.5796,VALID,289,VALID,1.37617,
2012-02-11, 02:59:05,VALID,1002.7,VALID,0,VALID,94.6439,VALID,0,VALID,24.599,VALID,276,VALID,0.499219,
2012-02-11, 03:00:05,VALID,1002.68,VALID,0,VALID,94.6591,VALID,0,VALID,24.599,VALID,339,VALID,0.501953,
2012-02-11, 03:01:05,VALID,1002.62,VALID,0,VALID,94.6668,VALID,0,VALID,24.6185,VALID,281,VALID,0.273047,
2012-02-11, 03:02:05,VALID,1002.63,VALID,0,VALID,94.6897,VALID,0,VALID,24.6185,VALID,342,VALID,0.874219,
2012-02-11, 03:03:05,VALID,1002.64,VALID,0,VALID,94.7202,VALID,0,VALID,24.6185,VALID,348,VALID,0.878125,
2012-02-11, 03:04:05,VALID,1002.63,VALID,0,VALID,94.7431,VALID,0,VALID,24.6185,VALID,341,VALID,0.567969,
2012-02-11, 03:05:05,VALID,1002.64,VALID,0,VALID,94.7965,VALID,0,VALID,24.6185,VALID,345,VALID,0.533984,
2012-02-11, 03:06:05,VALID,1002.63,VALID,0.5,VALID,94.827,VALID,0,VALID,24.638,VALID,346,VALID,0.616016,
2012-02-11, 03:07:05,VALID,1002.61,VALID,0,VALID,94.8728,VALID,0,VALID,24.6983,VALID,350,VALID,0.892969,
2012-02-11, 03:08:05,VALID,1002.63,VALID,0,VALID,94.888,VALID,0,VALID,24.6769,VALID,352,VALID,0.669141,
2012-02-11, 03:09:05,VALID,1002.61,VALID,0,VALID,94.9109,VALID,0.0815089,VALID,24.675,VALID,352,VALID,0.370313,
2012-02-11, 03:10:05,VALID,1002.6,VALID,0,VALID,94.9262,VALID,0.0815089,VALID,24.6945,VALID,357,VALID,0.575781,
2012-02-11, 03:11:05,VALID,1002.59,VALID,0,VALID,94.9262,VALID,0.0815089,VALID,24.6926,VALID,356,VALID,0.670703,
2012-02-11, 03:12:05,VALID,1002.56,VALID,0,VALID,94.9338,VALID,0.0815089,VALID,24.714,VALID,14,VALID,0.65625,
2012-02-11, 03:13:05,VALID,1002.56,VALID,0,VALID,94.9414,VALID,0.0815089,VALID,24.714,VALID,11,VALID,0.523828,
2012-02-11, 03:14:05,VALID,1002.55,VALID,0,VALID,94.9185,VALID,0.0815089,VALID,24.6945,VALID,11,VALID,0.395703,
2012-02-11, 03:15:05,VALID,1002.57,VALID,0,VALID,94.9338,VALID,0.0815089,VALID,24.6945,VALID,11,VALID,0.564062,
2012-02-11, 03:16:05,VALID,1002.59,VALID,0,VALID,94.949,VALID,0,VALID,24.675,VALID,11,VALID,0.437891,
2012-02-11, 03:17:05,VALID,1002.6,VALID,0,VALID,94.9338,VALID,0.0815089,VALID,24.6964,VALID,5,VALID,0.379297,
2012-02-11, 03:18:05,VALID,1002.6,VALID,0,VALID,94.9567,VALID,0,VALID,24.675,VALID,5,VALID,0.383594,
2012-02-11, 03:19:05,VALID,1002.58,VALID,0,VALID,94.9719,VALID,0.0815089,VALID,24.675,VALID,5,VALID,0.375781,
2012-02-11, 03:20:05,VALID,1002.6,VALID,0,VALID,94.9719,VALID,0.0815089,VALID,24.6342,VALID,5,VALID,0.385547,
2012-02-11, 03:21:05,VALID,1002.59,VALID,0,VALID,94.9796,VALID,0.0815089,VALID,24.6342,VALID,5,VALID,0.407031,
2012-02-11, 03:22:05,VALID,1002.59,VALID,0,VALID,94.9948,VALID,0.0815089,VALID,24.675,VALID,5,VALID,0.316797,
2012-02-11, 03:23:05,VALID,1002.58,VALID,0,VALID,95.0101,VALID,0.0815089,VALID,24.6342,VALID,5,VALID,0.221875,
2012-02-11, 03:24:05,VALID,1002.51,VALID,0,VALID,95.0177,VALID,0.0815089,VALID,24.6361,VALID,5,VALID,0.241797,
2012-02-11, 03:25:05,VALID,1002.51,VALID,0,VALID,95.033,VALID,0.0815089,VALID,24.6556,VALID,5,VALID,0.0078125,
2012-02-11, 03:26:05,VALID,1002.54,VALID,0,VALID,95.0177,VALID,0.0815089,VALID,24.6361,VALID,5,VALID,0,
2012-02-11, 03:27:05,VALID,1002.51,VALID,0,VALID,95.0253,VALID,0.0815089,VALID,24.6166,VALID,5,VALID,0.220703,
2012-02-11, 03:28:05,VALID,1002.5,VALID,0,VALID,95.0177,VALID,0.0815089,VALID,24.6166,VALID,5,VALID,0.00234375,
2012-02-11, 03:29:05,VALID,1002.48,VALID,0,VALID,95.0406,VALID,0.0815089,VALID,24.6166,VALID,5,VALID,0,
2012-02-11, 03:30:05,VALID,1002.49,VALID,0,VALID,95.0558,VALID,0.0815089,VALID,24.6166,VALID,5,VALID,0,
2012-02-11, 03:31:05,VALID,1002.48,VALID,0,VALID,95.0711,VALID,0,VALID,24.6166,VALID,5,VALID,0.107422,
2012-02-11, 03:32:05,VALID,1002.52,VALID,0.5,VALID,95.1016,VALID,0.0815089,VALID,24.6166,VALID,5,VALID,0.00234375,
2012-02-11, 03:33:05,VALID,1002.51,VALID,0,VALID,95.094,VALID,0,VALID,24.5953,VALID,334,VALID,0.534766,
2012-02-11, 03:34:05,VALID,1002.51,VALID,0,VALID,95.0864,VALID,0.0815089,VALID,24.5972,VALID,314,VALID,0.274219,
2012-02-11, 03:35:05,VALID,1002.52,VALID,0,VALID,95.094,VALID,0.0815089,VALID,24.6166,VALID,314,VALID,0.0148437,
2012-02-11, 03:36:05,VALID,1002.54,VALID,0,VALID,95.094,VALID,0.0815089,VALID,24.5972,VALID,262,VALID,0.505078,
2012-02-11, 03:37:05,VALID,1002.55,VALID,0,VALID,95.1016,VALID,0,VALID,24.5972,VALID,261,VALID,0.182031,
2012-02-11, 03:38:05,VALID,1002.55,VALID,0,VALID,95.0711,VALID,0.0815089,VALID,24.5777,VALID,261,VALID,0.287891,
2012-02-11, 03:39:05,VALID,1002.53,VALID,0,VALID,95.0635,VALID,0.0815089,VALID,24.5582,VALID,261,VALID,0.264062,
2012-02-11, 03:40:05,VALID,1002.56,VALID,0,VALID,95.0558,VALID,0.0815089,VALID,24.5582,VALID,259,VALID,0.554297,
2012-02-11, 03:41:05,VALID,1002.54,VALID,0,VALID,95.0406,VALID,0.0815089,VALID,24.498,VALID,185,VALID,0.732813,
2012-02-11, 03:42:05,VALID,1002.57,VALID,0,VALID,95.0711,VALID,0.0815089,VALID,24.5601,VALID,155,VALID,0.753516,
2012-02-11, 03:43:05,VALID,1002.57,VALID,0,VALID,95.0558,VALID,0.0815089,VALID,24.5388,VALID,154,VALID,0.813281,
2012-02-11, 03:44:05,VALID,1002.53,VALID,0,VALID,95.0482,VALID,0,VALID,24.5388,VALID,137,VALID,0.657422,